Time,TemperatureF,DewpointF,PressureIn,WindDirection,WindDirectionDegrees,WindSpeedMPH,WindSpeedGustMPH,Humidity,HourlyPrecipIn,Conditions,Clouds,dailyrainin,SoftwareType,DateUTC
2013-05-16 00:55:00,28.0,19.0,-100.00,NW,310,2.0,4.0,69,0.00,,,-99.99,,2013-05-16 08:55:00,
2013-05-16 01:04:00,28.0,19.0,-100.00,NW,310,2.0,4.0,69,0.00,,,-99.99,,2013-05-16 09:04:00,
2013-05-16 01:14:00,28.0,19.0,-100.00,NW,310,2.0,4.0,69,0.00,,,-99.99,,2013-05-16 09:14:00,
2013-05-16 01:24:00,28.0,18.0,-100.00,West,280,3.0,5.0,66,0.00,,,-99.99,,2013-05-16 09:24:00,
2013-05-16 01:35:00,28.0,18.0,-100.00,West,280,3.0,5.0,66,0.00,,,-99.99,,2013-05-16 09:35:00,
2013-05-16 01:45:00,28.0,18.0,-100.00,West,280,3.0,5.0,66,0.00,,,-99.99,,2013-05-16 09:45:00,
2013-05-16 01:55:00,28.0,18.0,-100.00,WNW,300,1.0,1.0,65,0.00,,,-99.99,,2013-05-16 09:55:00,
2013-05-16 02:04:00,28.0,18.0,-100.00,WNW,300,1.0,1.0,65,0.00,,,-99.99,,2013-05-16 10:04:00,
2013-05-16 02:15:00,28.0,18.0,-100.00,WNW,300,1.0,1.0,65,0.00,,,-99.99,,2013-05-16 10:15:00,
2013-05-16 02:24:00,28.0,19.0,-100.00,NNW,335,3.0,3.0,68,0.00,,,-99.99,,2013-05-16 10:24:00,
2013-05-16 02:35:00,28.0,19.0,-100.00,NNW,335,3.0,3.0,68,0.00,,,-99.99,,2013-05-16 10:35:00,
2013-05-16 02:45:00,28.0,18.0,-100.00,NNW,340,2.0,2.0,67,0.00,,,-99.99,,2013-05-16 10:45:00,
2013-05-16 02:56:00,28.0,19.0,-100.00,NNW,340,1.0,2.0,68,0.00,,,-99.99,,2013-05-16 10:56:00,
2013-05-16 03:05:00,28.0,19.0,-100.00,NNW,340,1.0,2.0,68,0.00,,,-99.99,,2013-05-16 11:05:00,
2013-05-16 03:14:00,28.0,19.0,-100.00,NNW,340,1.0,2.0,68,0.00,,,-99.99,,2013-05-16 11:14:00,
2013-05-16 03:25:00,28.0,18.0,-100.00,NNW,340,2.0,2.0,67,0.00,,,-99.99,,2013-05-16 11:25:00,
2013-05-16 03:35:00,28.0,18.0,-100.00,NNW,340,2.0,2.0,67,0.00,,,-99.99,,2013-05-16 11:35:00,
2013-05-16 03:45:00,28.0,18.0,-100.00,NNE,20,1.0,2.0,65,0.00,,,-99.99,,2013-05-16 11:45:00,
2013-05-16 03:57:00,28.0,18.0,-100.00,NNW,335,1.0,2.0,65,0.00,,,-99.99,,2013-05-16 11:57:00,
2013-05-16 04:06:00,28.0,18.0,-100.00,NNW,335,1.0,2.0,65,0.00,,,-99.99,,2013-05-16 12:06:00,
2013-05-16 04:13:00,28.0,18.0,-100.00,NNW,335,1.0,2.0,65,0.00,,,-99.99,,2013-05-16 12:13:00,
2013-05-16 04:23:00,28.0,18.0,-100.00,NNE,20,1.0,2.0,65,0.00,,,-99.99,,2013-05-16 12:23:00,
2013-05-16 04:34:00,28.0,18.0,-100.00,NNE,20,1.0,2.0,65,0.00,,,-99.99,,2013-05-16 12:34:00,
2013-05-16 04:53:00,27.0,18.0,-100.00,NE,45,1.0,2.0,67,0.00,,,-99.99,,2013-05-16 12:53:00,
2013-05-16 05:04:00,27.0,18.0,-100.00,NE,45,1.0,2.0,67,0.00,,,-99.99,,2013-05-16 13:04:00,
2013-05-16 05:12:00,27.0,18.0,-100.00,NE,45,1.0,2.0,67,0.00,,,-99.99,,2013-05-16 13:12:00,
2013-05-16 05:26:00,26.0,18.0,-100.00,NNE,15,2.0,4.0,70,0.00,,,-99.99,,2013-05-16 13:26:00,
2013-05-16 05:35:00,26.0,18.0,-100.00,NNE,15,2.0,4.0,70,0.00,,,-99.99,,2013-05-16 13:35:00,
2013-05-16 05:43:00,26.0,18.0,-100.00,NNE,15,2.0,4.0,70,0.00,,,-99.99,,2013-05-16 13:43:00,
2013-05-16 05:55:00,26.0,19.0,-100.00,NNE,25,2.0,3.0,72,0.00,,,-99.99,,2013-05-16 13:55:00,
2013-05-16 06:05:00,26.0,19.0,-100.00,NNE,25,2.0,3.0,72,0.00,,,-99.99,,2013-05-16 14:05:00,
2013-05-16 06:15:00,26.0,19.0,-100.00,NNE,25,2.0,3.0,72,0.00,,,-99.99,,2013-05-16 14:15:00,
2013-05-16 06:23:00,26.0,19.0,-100.00,NNW,335,2.0,4.0,75,0.00,,,-99.99,,2013-05-16 14:23:00,
2013-05-16 06:37:00,26.0,19.0,-100.00,NNW,335,2.0,4.0,75,0.00,,,-99.99,,2013-05-16 14:37:00,
2013-05-16 06:47:00,26.0,19.0,-100.00,NNW,335,2.0,4.0,75,0.00,,,-99.99,,2013-05-16 14:47:00,
2013-05-16 06:55:00,27.0,20.0,-100.00,North,350,2.0,5.0,74,0.00,,,-99.99,,2013-05-16 14:55:00,
2013-05-16 07:08:00,27.0,20.0,-100.00,North,350,2.0,5.0,74,0.00,,,-99.99,,2013-05-16 15:08:00,
2013-05-16 07:15:00,27.0,19.0,-100.00,NE,50,5.0,7.0,72,0.00,,,-99.99,,2013-05-16 15:15:00,
2013-05-16 07:28:00,27.0,19.0,-100.00,NNE,25,5.0,8.0,73,0.00,,,-99.99,,2013-05-16 15:28:00,
2013-05-16 07:40:00,27.0,19.0,-100.00,NNE,25,5.0,8.0,73,0.00,,,-99.99,,2013-05-16 15:40:00,
2013-05-16 07:50:00,27.0,19.0,-100.00,NNE,25,5.0,8.0,73,0.00,,,-99.99,,2013-05-16 15:50:00,
2013-05-16 08:00:00,27.0,19.0,-100.00,NE,50,5.0,7.0,72,0.00,,,-99.99,,2013-05-16 16:00:00,
2013-05-16 08:09:00,27.0,19.0,-100.00,NE,50,5.0,7.0,72,0.00,,,-99.99,,2013-05-16 16:09:00,
2013-05-16 08:30:00,28.0,20.0,-100.00,NE,50,6.0,7.0,71,0.00,,,-99.99,,2013-05-16 16:30:00,
2013-05-16 08:40:00,28.0,-99.9,-100.00,NE,50,6.0,7.0,71,0.00,,,-99.99,,2013-05-16 16:40:00,
2013-05-16 08:50:00,28.0,20.0,-100.00,NE,50,6.0,7.0,71,0.00,,,-99.99,,2013-05-16 16:50:00,
2013-05-16 09:00:00,28.0,20.0,-100.00,NE,45,7.0,9.0,72,0.00,,,-99.99,,2013-05-16 17:00:00,
2013-05-16 09:10:00,28.0,20.0,-100.00,NE,45,7.0,9.0,72,0.00,,,-99.99,,2013-05-16 17:10:00,
2013-05-16 09:20:00,28.0,20.0,-100.00,NE,45,7.0,9.0,72,0.00,,,-99.99,,2013-05-16 17:20:00,
2013-05-16 09:30:00,28.0,21.0,-100.00,NE,50,6.0,7.0,73,0.00,,,-99.99,,2013-05-16 17:30:00,
2013-05-16 09:40:00,28.0,21.0,-100.00,NE,50,6.0,7.0,73,0.00,,,-99.99,,2013-05-16 17:40:00,
2013-05-16 09:50:00,28.0,-99.9,-100.00,NE,50,6.0,7.0,73,0.00,,,-99.99,,2013-05-16 17:50:00,
2013-05-16 10:00:00,29.0,-99.9,-100.00,NNE,25,6.0,7.0,72,0.00,,,-99.99,,2013-05-16 18:00:00,
2013-05-16 10:10:00,29.0,21.0,-100.00,NNE,25,6.0,7.0,72,0.00,,,-99.99,,2013-05-16 18:10:00,
2013-05-16 10:20:00,29.0,21.0,-100.00,NNE,25,6.0,7.0,72,0.00,,,-99.99,,2013-05-16 18:20:00,
2013-05-16 10:30:00,-999.0,-99.9,-100.00,NE,35,6.0,10.0,70,0.00,,,-99.99,,2013-05-16 18:30:00,
2013-05-16 10:40:00,-999.0,-99.9,-100.00,NE,35,6.0,10.0,70,0.00,,,-99.99,,2013-05-16 18:40:00,
2013-05-16 10:50:00,-999.0,-99.9,-100.00,NE,35,6.0,10.0,70,0.00,,,-99.99,,2013-05-16 18:50:00,
2013-05-16 11:00:00,-999.0,-99.9,-100.00,NNE,15,8.0,11.0,65,0.00,,,-99.99,,2013-05-16 19:00:00,
2013-05-16 11:10:00,31.0,21.0,-100.00,NNE,15,8.0,11.0,65,0.00,,,-99.99,,2013-05-16 19:10:00,
2013-05-16 11:20:00,31.0,21.0,-100.00,NNE,15,8.0,11.0,65,0.00,,,-99.99,,2013-05-16 19:20:00,
2013-05-16 11:30:00,33.0,22.0,-100.00,NNE,15,9.0,12.0,63,0.00,,,-99.99,,2013-05-16 19:30:00,
2013-05-16 11:40:00,33.0,-99.9,-100.00,NNE,15,9.0,12.0,63,0.00,,,-99.99,,2013-05-16 19:40:00,
2013-05-16 11:50:00,-999.0,-99.9,-100.00,NNE,15,9.0,12.0,63,0.00,,,-99.99,,2013-05-16 19:50:00,
2013-05-16 12:00:00,33.0,-99.9,-100.00,NNE,20,9.0,12.0,61,0.00,,,-99.99,,2013-05-16 20:00:00,
2013-05-16 12:10:00,-999.0,-99.9,-100.00,NNE,20,9.0,12.0,61,0.00,,,-99.99,,2013-05-16 20:10:00,
2013-05-16 12:20:00,33.0,-99.9,-100.00,NNE,20,9.0,12.0,61,0.00,,,-99.99,,2013-05-16 20:20:00,
2013-05-16 12:30:00,36.0,23.0,-100.00,North,0,7.0,12.0,58,0.00,,,-99.99,,2013-05-16 20:30:00,
2013-05-16 12:40:00,-999.0,-99.9,-100.00,North,0,7.0,12.0,58,0.00,,,-99.99,,2013-05-16 20:40:00,
2013-05-16 12:50:00,36.0,23.0,-100.00,North,0,7.0,12.0,58,0.00,,,-99.99,,2013-05-16 20:50:00,
2013-05-16 13:00:00,36.0,22.0,-100.00,North,5,6.0,12.0,57,0.00,,,-99.99,,2013-05-16 21:00:00,
2013-05-16 13:10:00,36.0,-99.9,-100.00,North,5,6.0,12.0,57,0.00,,,-99.99,,2013-05-16 21:10:00,
2013-05-16 13:20:00,36.0,-99.9,-100.00,North,5,6.0,12.0,57,0.00,,,-99.99,,2013-05-16 21:20:00,
2013-05-16 13:29:00,36.0,22.0,-100.00,NW,305,6.0,14.0,54,0.00,,,-99.99,,2013-05-16 21:29:00,
2013-05-16 13:38:00,36.0,22.0,-100.00,NW,305,6.0,14.0,54,0.00,,,-99.99,,2013-05-16 21:38:00,
2013-05-16 13:50:00,36.0,-99.9,-100.00,NW,305,6.0,14.0,54,0.00,,,-99.99,,2013-05-16 21:50:00,
2013-05-16 14:00:00,-999.0,-99.9,-100.00,NNW,330,7.0,10.0,52,0.00,,,-99.99,,2013-05-16 22:00:00,
2013-05-16 14:08:00,37.0,21.0,-100.00,NNW,330,7.0,10.0,52,0.00,,,-99.99,,2013-05-16 22:08:00,
2013-05-16 14:20:00,37.0,21.0,-100.00,NNW,330,7.0,10.0,52,0.00,,,-99.99,,2013-05-16 22:20:00,
2013-05-16 14:30:00,38.0,21.0,-100.00,North,350,2.0,7.0,49,0.00,,,-99.99,,2013-05-16 22:30:00,
2013-05-16 14:40:00,38.0,21.0,-100.00,North,350,2.0,7.0,49,0.00,,,-99.99,,2013-05-16 22:40:00,
2013-05-16 14:50:00,38.0,21.0,-100.00,North,350,2.0,7.0,49,0.00,,,-99.99,,2013-05-16 22:50:00,
2013-05-16 15:00:00,40.0,21.0,-100.00,NW,305,4.0,7.0,47,0.00,,,-99.99,,2013-05-16 23:00:00,
2013-05-16 15:06:00,40.0,21.0,-100.00,NW,305,4.0,7.0,47,0.00,,,-99.99,,2013-05-16 23:06:00,
2013-05-16 15:16:00,40.0,21.0,-100.00,NW,305,4.0,7.0,47,0.00,,,-99.99,,2013-05-16 23:16:00,
2013-05-16 15:24:00,39.0,20.0,-100.00,NNE,25,6.0,9.0,47,0.00,,,-99.99,,2013-05-16 23:24:00,
2013-05-16 15:35:00,39.0,20.0,-100.00,NNE,25,6.0,9.0,47,0.00,,,-99.99,,2013-05-16 23:35:00,
2013-05-16 15:45:00,39.0,20.0,-100.00,NNE,25,6.0,9.0,47,0.00,,,-99.99,,2013-05-16 23:45:00,
2013-05-16 15:54:00,40.0,21.0,-100.00,NNW,345,4.0,7.0,45,0.00,,,-99.99,,2013-05-16 23:54:00,
2013-05-16 16:02:00,40.0,21.0,-100.00,NNW,345,4.0,7.0,45,0.00,,,-99.99,,2013-05-17 00:02:00,
2013-05-16 16:13:00,40.0,21.0,-100.00,NNW,345,4.0,7.0,45,0.00,,,-99.99,,2013-05-17 00:13:00,
2013-05-16 16:22:00,40.0,21.0,-100.00,NNW,345,2.0,4.0,45,0.00,,,-99.99,,2013-05-17 00:22:00,
2013-05-16 16:33:00,40.0,21.0,-100.00,NNW,345,2.0,4.0,45,0.00,,,-99.99,,2013-05-17 00:33:00,
2013-05-16 16:43:00,40.0,21.0,-100.00,NNW,345,2.0,4.0,45,0.00,,,-99.99,,2013-05-17 00:43:00,
2013-05-16 16:53:00,41.0,21.0,-100.00,West,280,1.0,5.0,43,0.00,,,-99.99,,2013-05-17 00:53:00,
2013-05-16 17:03:00,41.0,21.0,-100.00,West,280,1.0,5.0,43,0.00,,,-99.99,,2013-05-17 01:03:00,
2013-05-16 17:12:00,41.0,21.0,-100.00,West,280,1.0,5.0,43,0.00,,,-99.99,,2013-05-17 01:12:00,
2013-05-16 17:23:00,40.0,20.0,-100.00,NE,35,5.0,6.0,44,0.00,,,-99.99,,2013-05-17 01:23:00,
2013-05-16 17:32:00,40.0,20.0,-100.00,NE,35,5.0,6.0,44,0.00,,,-99.99,,2013-05-17 01:32:00,
2013-05-16 17:43:00,40.0,20.0,-100.00,NE,35,5.0,6.0,44,0.00,,,-99.99,,2013-05-17 01:43:00,
2013-05-16 17:52:00,41.0,20.0,-100.00,NE,45,2.0,4.0,43,0.00,,,-99.99,,2013-05-17 01:52:00,
2013-05-16 18:02:00,41.0,20.0,-100.00,NE,45,2.0,4.0,43,0.00,,,-99.99,,2013-05-17 02:02:00,
2013-05-16 18:11:00,41.0,20.0,-100.00,NE,45,2.0,4.0,43,0.00,,,-99.99,,2013-05-17 02:11:00,
2013-05-16 18:21:00,40.0,20.0,-100.00,NNW,345,6.0,9.0,43,0.00,,,-99.99,,2013-05-17 02:21:00,
2013-05-16 18:32:00,40.0,20.0,-100.00,NNW,345,6.0,9.0,43,0.00,,,-99.99,,2013-05-17 02:32:00,
2013-05-16 18:42:00,40.0,20.0,-100.00,NNW,345,6.0,9.0,43,0.00,,,-99.99,,2013-05-17 02:42:00,
2013-05-16 18:53:00,40.0,20.0,-100.00,NW,315,4.0,7.0,44,0.00,,,-99.99,,2013-05-17 02:53:00,
2013-05-16 19:01:00,40.0,20.0,-100.00,NW,315,4.0,7.0,44,0.00,,,-99.99,,2013-05-17 03:01:00,
2013-05-16 19:11:00,40.0,20.0,-100.00,NW,315,4.0,7.0,44,0.00,,,-99.99,,2013-05-17 03:11:00,
2013-05-16 19:22:00,41.0,21.0,-100.00,West,275,2.0,4.0,43,0.00,,,0.00,,2013-05-17 03:22:00,
2013-05-16 19:34:00,41.0,21.0,-100.00,West,275,2.0,4.0,43,0.00,,,0.00,,2013-05-17 03:34:00,
2013-05-16 19:43:00,41.0,21.0,-100.00,West,275,2.0,4.0,43,0.00,,,0.00,,2013-05-17 03:43:00,
2013-05-16 19:53:00,41.0,21.0,-100.00,West,275,4.0,7.0,43,0.00,,,0.00,,2013-05-17 03:53:00,
2013-05-16 20:02:00,41.0,21.0,-100.00,West,275,4.0,7.0,43,0.00,,,0.00,,2013-05-17 04:02:00,
2013-05-16 20:13:00,41.0,21.0,-100.00,West,275,4.0,7.0,43,0.00,,,0.00,,2013-05-17 04:13:00,
2013-05-16 20:23:00,40.0,21.0,-100.00,SW,230,6.0,8.0,45,0.00,,,0.00,,2013-05-17 04:23:00,
2013-05-16 20:33:00,40.0,21.0,-100.00,SW,230,6.0,8.0,45,0.00,,,0.00,,2013-05-17 04:33:00,
2013-05-16 20:43:00,40.0,21.0,-100.00,SW,230,6.0,8.0,45,0.00,,,0.00,,2013-05-17 04:43:00,
2013-05-16 20:53:00,39.0,20.0,-100.00,South,190,9.0,12.0,47,0.00,,,0.00,,2013-05-17 04:53:00,
2013-05-16 21:02:00,39.0,20.0,-100.00,South,190,9.0,12.0,47,0.00,,,0.00,,2013-05-17 05:02:00,
2013-05-16 21:13:00,39.0,20.0,-100.00,South,190,9.0,12.0,47,0.00,,,0.00,,2013-05-17 05:13:00,
2013-05-16 21:22:00,38.0,21.0,-100.00,West,265,2.0,5.0,48,0.00,,,0.00,,2013-05-17 05:22:00,
2013-05-16 21:32:00,38.0,21.0,-100.00,West,265,2.0,5.0,48,0.00,,,0.00,,2013-05-17 05:32:00,
2013-05-16 21:42:00,38.0,21.0,-100.00,West,265,2.0,5.0,48,0.00,,,0.00,,2013-05-17 05:42:00,
2013-05-16 21:52:00,37.0,20.0,-100.00,ESE,105,1.0,3.0,49,0.00,,,0.00,,2013-05-17 05:52:00,
2013-05-16 22:01:00,37.0,20.0,-100.00,ESE,105,1.0,3.0,49,0.00,,,0.00,,2013-05-17 06:01:00,
2013-05-16 22:11:00,37.0,20.0,-100.00,ESE,105,1.0,3.0,49,0.00,,,0.00,,2013-05-17 06:11:00,
2013-05-16 22:21:00,36.0,20.0,-100.00,SSW,195,1.0,4.0,52,0.00,,,0.00,,2013-05-17 06:21:00,
2013-05-16 22:32:00,36.0,20.0,-100.00,SSW,195,1.0,4.0,52,0.00,,,0.00,,2013-05-17 06:32:00,
2013-05-16 22:42:00,36.0,20.0,-100.00,SSW,195,1.0,4.0,52,0.00,,,0.00,,2013-05-17 06:42:00,
2013-05-16 22:51:00,34.0,20.0,-100.00,NNW,345,2.0,2.0,56,0.00,,,0.00,,2013-05-17 06:51:00,
2013-05-16 23:02:00,34.0,20.0,-100.00,NNW,345,2.0,2.0,56,0.00,,,0.00,,2013-05-17 07:02:00,
2013-05-16 23:11:00,34.0,20.0,-100.00,NNW,345,2.0,2.0,56,0.00,,,0.00,,2013-05-17 07:11:00,
2013-05-16 23:21:00,33.0,21.0,-100.00,West,275,4.0,8.0,59,0.00,,,0.00,,2013-05-17 07:21:00,
2013-05-16 23:32:00,33.0,21.0,-100.00,West,275,4.0,8.0,59,0.00,,,0.00,,2013-05-17 07:32:00,
2013-05-16 23:43:00,33.0,21.0,-100.00,West,275,4.0,8.0,59,0.00,,,0.00,,2013-05-17 07:43:00,
2013-05-16 23:53:00,32.0,21.0,-100.00,NW,325,3.0,4.0,63,0.00,,,0.00,,2013-05-17 07:53:00,